FLOCK 4A-1 (44079 NORAD) Tracking and Keplerian Element Data

This shows tracking and keplerian element data for the satellite.

Feedback or suggestion? Click here.




ElementValue
Catalog44079
NameFLOCK 4A-1
Epoch Orbit431
Epoch Day119.75658407
Epoch Year2019
RAAN180.0508
Inclination97.4607
Eccentricity0.0013545
Argument of Perigee169.7086
Mean Anonmoly190.443
Mean Motion15.21145714
Decay Rate8.86E-06
L11 44079U 19018B 19119.75658407 .00000886 00000-0 42869-4 0 9991
L22 44079 97.4607 180.0508 0013545 169.7086 190.4430 15.21145714 4316

Live tracking and technical data element details for FLOCK 4A-1 (NORAD 44079). FLOCK 4A-1 can be tracked NOW for your location showing map with azimuth and elevation plus other details from your city location.

Track the satellite on the map from your city or location and see movement details for azimuth, elevation, latitude, longitude, range, height, and movement on the map or in text.







IsCatalogInMostPopularTable: catalog: 44079, numindb: 26
Update: records affected: 1



GetName: 44079 FLOCK 4A-1

Hit Count: updated at: Tue, 16 Jul 2019 20:43:32 GMT